Location: Kumla
(59.1265°N, 15.1401°E)
Time: 20:03:56
(UTC+01:00)

Vanguard 1 Rocket - Pass Details

Date: 09 December 2023
Orbit: 654 x 4218 km, 34.3° (Epoch: 21 February)

Event Time Altitude Azimuth Distance (km) Brightness Sun altitude
Rises 01:02:43 0° 175° (S) 8,455 - -51.5°
Exits shadow 01:14:03 - 153° (SSE) 7,362 11.8 -50.8°
Reaches altitude 10° 01:17:53 10° 145° (SE) 7,058 11.7 -50.5°
Maximum altitude 01:21:04 10° 137° (SE) 6,849 11.7 -50.3°
Drops below altitude 10° 01:24:07 10° 128° (SE) 6,699 11.7 -50.1°
Sets 01:35:45 0° 97° (E) 6,735 12.1 -49.2°
